Content
SEND FEEDBACK

Daily
Averages
Monthly
Summary
United States of America

LENOXVILLE, PENNSYLVANIA


Home > North America > United States > Pennsylvania
Elevation: 1350 feet     Latitude: 41 43N     Longitude: 075 43W

WEATHER
 
SELECT A DAY
Number of Records: 218,441;   Date Range: 1/1/95 - 10/20/14
 
SHARE

PRINT THIS DATA

[ ← Previous Day ]
WEATHER ALMANAC - JANUARY 31, 2013
[ Next Day → ]
[ °C ]   °F
Weather ElementAverageHighLow
Temperature38.2 °F55.4 °F (3:09 am)24.1 °F (9:54 pm)
Dewpoint26.6 °F51.8 °F (3:09 am)8.1 °F (8:54 pm)
Humidity64.3 %94 % (3:14 am)41 % (10:54 am)
Barometer29.39 in29.75 in (11:54 pm)29.05 in (3:54 am)
Wind Speed19.2 mph32.2 mph (1:54 pm)
Wind Gust44.9 mph (1:54 pm)
Weather ElementAverage
Visibility8.6 mi
Wind DirectionWSW (246.3 °)

Weather ElementTotal
Precipitation0.53 in
Heating Degree Days25.3 (Base 65)
Averaged from 27 records on January 31, 2013
WEATHER CONDITIONS BREAKOUT
WIND DIRECTION BREAKOUT
WEATHER BY HOUR - JANUARY 31, 2013
[ °C ]   °F
Local TimeTemperatureDewpointHumidityBarometerVisibilityWind DirectionWind SpeedGust SpeedPrecipitationEventsConditions
1:54 AM55.0 °F51.1 °F86 %29.08 in5.0 miSSE (150°)11.5 mph23.0 mph0.10 inRainRain
2:54 AM55.0 °F51.1 °F86 %29.07 in5.0 miWSW (240°)9.2 mph0.09 inRainRain
3:09 AM55.4 °F51.8 °F88 %29.09 in2.5 miWSW (250°)24.2 mph35.7 mph0.05 inRainHeavy Rain
3:14 AM53.6 °F51.8 °F94 %29.08 in3.0 miSW (230°)17.3 mph35.7 mph0.09 inRainRain
3:54 AM53.1 °F50.0 °F89 %29.05 in6.0 miSW (220°)11.5 mph17.3 mph0.14 inRainLight Rain
4:30 AM51.8 °F48.2 °F88 %29.05 in7.0 miSW (230°)17.3 mph25.3 mph0.02 inRainLight Rain
4:49 AM48.2 °F42.8 °F82 %29.08 in10.0 miWSW (240°)17.3 mph32.2 mph0.02 inRainLight Rain
4:54 AM48.0 °F42.1 °F80 %29.08 in10.0 miWSW (250°)17.3 mph31.1 mph0.02 inRainLight Rain
5:54 AM43.0 °F33.1 °F68 %29.15 in10.0 miWSW (240°)20.7 mph28.8 mph0.00 inOvercast
6:54 AM39.9 °F30.0 °F68 %29.23 in10.0 miWSW (250°)23.0 mph39.1 mph0.00 inOvercast
7:54 AM37.9 °F28.0 °F68 %29.28 in10.0 miWSW (250°)21.9 mph31.1 mphOvercast
8:54 AM36.0 °F23.0 °F59 %29.34 in10.0 miWest (260°)24.2 mph38.0 mphOvercast
9:54 AM36.0 °F21.9 °F57 %29.39 in10.0 miWest (280°)17.3 mph27.6 mphOvercast
10:54 AM37.9 °F16.0 °F41 %29.41 in10.0 miWest (260°)31.1 mph39.1 mph0.00 inMostly Cloudy
11:54 AM36.0 °F19.9 °F52 %29.42 in10.0 miWSW (250°)19.6 mph31.1 mphMostly Cloudy
12:54 PM36.0 °F18.0 °F48 %29.44 in10.0 miWSW (250°)18.4 mph34.5 mphMostly Cloudy
1:54 PM35.1 °F19.0 °F52 %29.48 in10.0 miWest (260°)32.2 mph44.9 mphOvercast
2:54 PM32.0 °F16.0 °F52 %29.52 in10.0 miWest (260°)19.6 mph31.1 mphMostly Cloudy
3:54 PM32.0 °F12.9 °F45 %29.56 in10.0 miWSW (250°)20.7 mph34.5 mphMostly Cloudy
4:54 PM30.0 °F10.9 °F45 %29.60 in10.0 miWest (260°)18.4 mph33.4 mphOvercast
5:54 PM28.0 °F14.0 °F56 %29.65 in10.0 miWest (270°)10.4 mphMostly Cloudy
6:54 PM27.0 °F17.1 °F66 %29.68 in4.0 miWest (260°)25.3 mph36.8 mph0.00 inSnowLight Snow
7:54 PM26.1 °F9.0 °F49 %29.71 in10.0 miWest (260°)21.9 mph36.8 mph0.00 inScattered Clouds
8:54 PM25.0 °F8.1 °F49 %29.73 in10.0 miWSW (250°)25.3 mph31.1 mphScattered Clouds
9:54 PM24.1 °F10.0 °F55 %29.74 in10.0 miWSW (240°)12.7 mph20.7 mphScattered Clouds
10:54 PM24.1 °F10.9 °F57 %29.74 in10.0 miWSW (240°)15.0 mph20.7 mphOvercast
11:54 PM24.1 °F10.9 °F57 %29.75 in10.0 miWSW (250°)15.0 mph27.6 mphClear
Hourly data recorded from KAVP, located miles away from Lenoxville, Pennsylvania







STORIES FROM OUR PARTNERS